CAPE
2 1 1 7 5 6 4 2 1 2 2 2 1 0 0 0 0 0 0 0 0 0 0 0 0 0 0 0 0 0 0 0 0 0 0 0 0 0 0 0 0 0 0 0 0
1 3 2 1 1 1 1 2 1 0 1 2 2 2 2 0 0 0 0 0 0 0 0 0 0 0 0 0 0 0 0 0 0 0 0 0 0 0 0 0 0 0 0 0 0
4 5 4 2 2 2 1 1 1 0 0 0 1 3 3 0 0 0 0 0 0 0 0 0 0 0 0 0 0 0 0 0 0 0 0 0 0 0 0 0 0 0 0 0 0
3 3 2 2 3 4 4 2 2 2 2 2 1 4 3 0 0 0 0 0 0 0 0 0 0 0 0 0 0 0 0 0 0 0 0 0 0 0 0 0 0 0 0 0 0
2 3 2 2 1 2 3 3 3 2 2 3 5 3 1 0 0 0 0 0 0 0 0 0 0 0 0 0 0 0 0 0 0 0 0 0 0 0 0 0 0 0 0 0 0
0 1 1 1 1 1 0 0 0 1 4 0 2 3 2 0 0 0 0 0 0 0 0 0 0 0 0 0 0 0 0 0 0 0 0 0 0 0 0 0 0 0 0 0 0
0 0 0 0 0 0 0 0 0 0 2 1 1 3 2 0 0 0 0 0 0 0 0 0 0 0 0 0 0 0 0 0 0 0 0 0 0 0 0 0 0 0 0 0 0
0 0 3 2 1 4 0 0 0 0 0 1 3 1 0 0 0 0 0 0 0 0 0 0 0 0 0 0 0 0 0 0 0 0 0 0 0 0 0 0 0 0 0 0 0
3 3 3 6 1 3 1 0 0 0 0 1 0 0 0 0 0 0 0 0 0 0 0 0 0 0 0 0 0 0 0 0 0 0 0 0 0 0 0 0 0 0 0 0 0
3 2 3 3 1 0 0 0 0 0 0 0 0 0 0 0 0 0 0 0 0 0 0 0 0 0 0 0 0 0 0 0 0 0 0 0 0 0 0 0 0 0 0 0 0
1 1 0 0 0 0 0 0 0 0 0 0 0 0 0 0 0 0 0 0 0 0 0 0 0 0 0 0 0 0 0 0 0 0 0 0 0 0 0 0 0 0 0 0 0
0 0 0 0 0 0 0 0 0 0 0 0 0 0 0 0 0 0 0 0 0 0 0 0 0 0 0 0 0 0 0 0 0 0 0 0 0 0 0 0 0 0 0 0 0
0 0 0 0 0 0 0 0 0 0 0 0 0 0 0 0 0 0 0 0 0 0 0 0 0 0 0 0 0 0 0 0 0 0 0 0 0 0 0 0 0 0 0 0 0
1 1 0 0 0 0 0 0 0 0 0 0 0 0 0 0 0 0 0 0 0 0 0 0 0 0 0 0 0 0 0 0 0 0 0 0 0 0 0 0 0 0 0 0 0
1 3 2 3 0 0 0 0 0 0 0 0 0 0 0 0 11 38 13 0 0 0 0 0 0 0 0 0 0 0 0 0 0 0 0 0 0 0 0 0 0 0 0 0 0
3 3 2 0 0 0 0 0 0 0 0 0 0 0 0 0 3 2 7 0 1 0 0 0 0 0 0 0 0 0 0 0 0 0 0 0 0 0 0 0 0 0 0 0 0
1 0 1 0 0 0 0 0 0 0 0 0 0 0 0 0 1 1 0 2 12 0 0 0 0 0 0 0 0 0 0 0 0 0 0 0 0 0 0 0 0 0 0 0 0
0 0 0 0 0 0 0 0 0 0 0 0 0 0 0 0 0 0 0 2 0 0 5 3 0 0 0 0 0 0 0 0 0 0 0 0 0 0 0 0 0 0 0 0 0
0 0 0 0 0 0 0 0 0 0 0 0 0 0 0 0 0 0 0 3 2 13 0 0 2 3 0 0 0 0 0 0 0 0 0 0 0 0 0 0 0 0 0 0 0
0 0 0 0 0 0 0 0 0 0 0 0 1 0 0 0 0 0 2 0 2 3 0 0 0 0 0 0 0 0 0 0 0 0 0 0 0 0 0 0 0 0 0 0 0
0 0 0 0 0 0 0 0 0 0 0 4 0 0 1 0 0 0 1 1 0 0 0 0 0 0 0 0 0 0 0 0 0 0 0 0 0 0 0 0 0 0 0 0 0
0 0 0 0 0 0 0 0 0 0 0 0 1 0 1 0 0 0 0 0 0 0 0 0 0 0 0 0 0 0 0 0 0 0 0 0 0 0 0 0 0 0 0 0 0
0 0 0 0 0 0 0 0 0 0 0 2 0 0 1 6 0 0 0 0 0 0 0 0 0 0 0 2 0 0 0 0 0 0 0 0 0 0 0 0 0 0 0 0 39
0 0 0 0 0 0 0 0 0 0 1 2 0 0 0 0 0 0 0 0 0 0 3 10 0 0 0 0 0 0 0 8 0 0 0 0 0 0 0 0 0 0 0 0 101
0 0 0 0 0 0 0 0 0 9 6 1 0 4 5 7 0 0 0 0 0 0 1 1 0 0 0 0 0 0 0 0 0 0 0 0 0 0 0 0 0 0 0 0 63
0 0 0 0 0 1 0 0 4 3 2 0 6 3 0 0 0 0 6 0 0 1 29 12 0 0 1 0 0 0 0 0 0 0 0 0 0 0 0 0 0 0 0 0 61
0 0 0 0 1 0 0 1 2 8 0 5 10 4 0 0 0 0 0 0 1 2 1 9 7 2 1 0 1 0 0 0 0 0 0 0 0 0 0 0 0 9 10 22 157
CIN
-2 -0 -0 -0 -0 -0 -0 -0 -0 -0 -0 -0 -0 -0 -0 -0 -0 -0 -0 -0 -0 -0 -0 -0 -0 -0 -0 -0 -0 -0 -0 -0 -0 -0 -0 -0 -0 -0 -0 -0 -0 -0 -0 -0 -0
-0 -0 -0 -0 -0 -0 -0 -0 -0 -0 -0 -0 -0 -0 -0 -0 -0 -0 -0 -0 -0 -0 -0 -0 -0 -0 -0 -0 -0 -0 -0 -0 -0 -0 -0 -0 -0 -0 -0 -0 -0 -0 -0 -0 -0
-0 -0 -0 -0 -0 -0 -0 -0 -0 -0 -0 -0 -0 -0 -0 -0 -0 -0 -0 -0 -0 -0 -0 -0 -0 -0 -0 -0 -0 -0 -0 -0 -0 -0 -0 -0 -0 -0 -0 -0 -0 -0 -0 -0 -0
-0 -0 -0 -0 -0 -0 -0 -0 -0 -0 -0 -0 -0 -0 -0 -0 -0 -0 -0 -0 -0 -0 -0 -0 -0 -0 -0 -0 -0 -0 -0 -0 -0 -0 -0 -0 -0 -0 -0 -0 -0 -0 -0 -0 -0
-0 -0 -0 -0 -0 -0 -0 -0 -0 -0 -0 -0 -0 -0 -0 -0 -0 -0 -0 -0 -0 -0 -0 -0 -0 -0 -0 -0 -0 -0 -0 -0 -0 -0 -0 -0 -0 -0 -0 -0 -0 -0 -0 -0 -0
-0 -0 -0 -0 -0 -0 -0 -0 -0 -0 -0 -0 -0 -0 -0 -0 -0 -0 -0 -0 -0 -0 -0 -0 -0 -0 -0 -0 -0 -0 -0 -0 -0 -0 -0 -0 -0 -0 -0 -0 -0 -0 -0 -0 -0
-0 -0 -0 -0 -0 -0 -0 -0 -0 -0 -0 -0 -0 -0 -0 -0 -0 -0 -0 -0 -0 -0 -0 -0 -0 -0 -0 -0 -0 -0 -0 -0 -0 -0 -0 -0 -0 -0 -0 -0 -0 -0 -0 -0 -0
-0 -0 -0 -0 -0 -0 -0 -0 -0 -0 -0 -0 -0 -0 -0 -0 -0 -0 -0 -0 -0 -0 -0 -0 -0 -0 -0 -0 -0 -0 -0 -0 -0 -0 -0 -0 -0 -0 -0 -0 -0 -0 -0 -0 -0
-0 -0 -0 -0 -0 -0 -0 -0 -0 -0 -0 -0 -0 -0 -0 -0 -0 -0 -0 -0 -0 -0 -0 -0 -0 -0 -0 -0 -0 -0 -0 -0 -0 -0 -0 -0 -0 -0 -0 -0 -0 -0 -0 -0 -0
-0 -0 -0 -0 -0 -0 -0 -0 -0 -0 -0 -0 -0 -0 -0 -0 -0 -0 -0 -0 -0 -0 -0 -0 -0 -0 -0 -0 -0 -0 -0 -0 -0 -0 -0 -0 -0 -0 -0 -0 -0 -0 -0 -0 -0
-0 -0 -0 -0 -0 -0 -0 -0 -0 -0 -0 -0 -0 -0 -0 -0 -0 -0 -0 -0 -0 -0 -0 -0 -0 -0 -0 -0 -0 -0 -0 -0 -0 -0 -0 -0 -0 -0 -0 -0 -0 -0 -0 -0 -0
-0 -0 -0 -0 -0 -0 -0 -0 -0 -0 -0 -0 -0 -0 -0 -0 -0 -0 -0 -0 -0 -0 -0 -0 -0 -0 -0 -0 -0 -0 -0 -0 -0 -0 -0 -0 -0 -0 -0 -0 -0 -0 -0 -0 -0
-0 -0 -0 -0 -0 -0 -0 -0 -0 -0 -0 -0 -0 -0 -0 -0 -0 -0 -0 -0 -0 -0 -0 -0 -0 -0 -0 -0 -0 -0 -0 -0 -0 -0 -0 -0 -0 -0 -0 -0 -0 -0 -0 -0 -0
-0 -0 -0 -0 -0 -0 -0 -0 -0 -0 -0 -0 -0 -0 -0 -0 -0 -5 -0 -0 -0 -0 -0 -0 -0 -0 -0 -0 -0 -0 -0 -0 -0 -0 -0 -0 -0 -0 -0 -0 -0 -0 -0 -0 -0
-0 -0 -0 -0 -0 -0 -0 -0 -0 -0 -0 -0 -0 -0 -0 -0 -17 -49 -90 -0 -0 -0 -0 -0 -0 -0 -0 -0 -0 -0 -0 -0 -0 -0 -0 -0 -0 -0 -0 -0 -0 -0 -0 -0 -0
-0 -0 -0 -0 -0 -0 -0 -0 -0 -0 -0 -0 -0 -0 -0 -0 -4 -8 -67 -0 -12 -0 -0 -0 -0 -0 -0 -0 -0 -0 -0 -0 -0 -0 -0 -0 -0 -0 -0 -0 -0 -0 -0 -0 -0
-0 -0 -0 -0 -0 -0 -0 -0 -0 -0 -0 -0 -0 -0 -0 -10 -8 -9 -0 -18 -14 -2 -0 -0 -0 -0 -0 -0 -0 -0 -0 -0 -0 -0 -0 -0 -0 -0 -0 -0 -0 -0 -0 -0 -0
-0 -0 -0 -0 -0 -0 -0 -0 -0 -0 -0 -0 -0 -0 -0 -0 -0 -0 -0 -16 -0 -1 -19 -19 -0 -0 -0 -0 -0 -0 -0 -0 -0 -0 -0 -0 -0 -0 -0 -0 -0 -0 -0 -0 -0
-0 -0 -0 -0 -0 -0 -0 -0 -0 -0 -0 -0 -0 -0 -0 -35 -0 -0 -0 -26 -29 -26 -2 -1 -9 -20 -0 -0 -0 -0 -0 -0 -0 -0 -0 -0 -0 -0 -0 -0 -0 -0 -0 -0 -0
-0 -0 -0 -0 -0 -0 -0 -0 -0 -0 -0 -0 -1 -0 -0 -0 -0 -0 -45 -0 -19 -62 -0 -0 -0 -0 -0 -0 -0 -0 -0 -0 -0 -0 -0 -0 -0 -0 -0 -0 -0 -0 -0 -0 -0
-0 -0 -0 -0 -0 -0 -0 -0 -0 -0 -0 -1 -0 -0 -8 -2 -0 -0 -29 -17 -0 -0 -0 -0 -0 -0 -0 -0 -0 -0 -0 -0 -0 -0 -0 -0 -0 -0 -0 -0 -0 -0 -0 -0 -0
-0 -0 -0 -0 -0 -0 -0 -0 -0 -0 -0 -0 -12 -0 -2 -0 -0 -1 -0 -0 -0 -0 -0 -0 -0 -0 -0 -0 -0 -0 -0 -0 -0 -0 -0 -0 -0 -0 -0 -0 -0 -0 -0 -0 -0
-0 -0 -0 -0 -0 -0 -0 -0 -0 -0 -0 -2 -0 -0 -11 -6 -3 -0 -0 -0 -0 -2 -0 -1 -0 -0 -0 -4 -0 -0 -0 -0 -0 -0 -0 -0 -0 -0 -0 -0 -0 -0 -0 -0 -562
-0 -0 -0 -0 -0 -0 -0 -0 -0 -0 -12 -2 -0 -0 -0 -0 -0 -0 -0 -0 -0 -0 -10 -25 -0 -0 -0 -0 -0 -0 -0 -20 -0 -0 -0 -0 -0 -0 -0 -0 -0 -0 -0 -0 -430
-0 -0 -0 -0 -0 -0 -0 -0 -0 -0 -2 -7 -0 -7 -4 -0 -1 -0 -0 -0 -0 -0 -0 -5 -0 -0 -0 -0 -0 -0 -0 -10 -0 -0 -0 -0 -0 -0 -0 -0 -0 -0 -0 -0 -404
-0 -0 -0 -0 -0 -1 -0 -0 -1 -0 -0 -0 -0 -0 -0 -0 -0 -0 -1 -0 -0 -13 -2 -11 -0 -1 -1 -0 -0 -0 -0 -0 -0 -0 -0 -0 -0 -0 -0 -0 -0 -0 -0 -0 -331
-0 -0 -0 -0 -1 -1 -0 -0 -0 -2 -0 -10 -0 -2 -0 -0 -0 -0 -0 -0 -1 -1 -1 -3 -0 -1 -0 -0 -1 -0 -4 -0 -0 -0 -0 -0 -0 -0 -0 -0 -0 -322 -371 -386 -397
Wind_Speed
28 29 29 30 31 32 33 34 34 35 35 36 36 37 38 40 43 38 46 37 30 34 33 28 23 23 22 25 23 22 30 37 31 23 21 20 20 16 20 20 22 20 14 14 11
28 29 30 31 31 32 33 34 35 36 36 37 37 37 38 40 40 45 43 41 39 34 30 33 33 25 28 29 27 27 31 35 29 29 25 29 28 26 25 26 27 25 20 19 18
29 30 31 32 33 34 34 35 35 36 36 37 37 37 38 39 38 33 22 26 29 34 37 32 30 30 34 30 31 31 37 32 35 31 27 29 32 31 33 33 23 25 33 32 27
30 31 32 33 34 35 35 36 37 37 37 37 37 37 37 31 38 24 24 30 31 33 34 35 32 38 39 37 32 36 36 36 43 36 33 39 33 39 42 36 38 41 34 37 34
31 32 33 34 35 36 37 38 38 38 37 37 36 35 32 34 38 36 41 39 32 27 31 39 40 38 45 40 38 44 39 37 43 41 39 41 44 39 44 43 42 43 40 36 32
31 32 34 35 37 37 39 40 40 39 39 37 35 32 33 45 31 32 34 35 31 31 31 33 39 38 40 46 41 38 43 48 47 45 41 43 50 45 46 45 42 38 34 36 37
32 34 36 37 39 40 41 41 41 41 39 35 31 29 34 43 33 37 40 39 40 37 34 31 35 33 40 40 42 47 51 47 44 43 46 39 59 51 40 40 39 36 38 40 43
35 36 38 39 40 40 41 42 43 41 35 29 25 28 39 38 36 37 36 37 32 32 33 33 32 35 36 34 38 44 48 60 54 43 39 33 74 46 34 34 38 41 41 42 46
37 38 40 41 41 41 39 39 39 34 28 25 28 31 44 31 29 29 26 34 30 28 28 27 25 33 33 42 45 44 59 55 53 40 37 38 73 47 41 41 46 47 49 51 53
39 40 41 42 42 41 40 38 33 26 28 27 26 40 35 43 44 44 43 31 29 28 30 31 31 35 37 40 54 51 52 51 51 39 38 47 69 48 45 46 51 53 55 57 59
39 40 42 42 41 38 34 34 38 32 34 33 37 37 43 39 41 39 30 32 32 29 36 32 40 46 42 41 41 37 47 44 41 39 39 49 63 57 51 50 53 53 51 50 42
40 40 41 41 38 34 29 34 34 30 36 28 27 26 27 34 39 41 24 28 28 33 32 37 50 42 36 40 43 46 48 45 41 38 36 42 53 47 44 45 44 46 46 48 51
41 40 39 37 33 26 30 29 30 24 26 25 23 26 29 29 32 33 29 27 31 35 34 41 36 41 40 42 42 43 48 47 45 40 45 46 58 51 48 42 40 45 45 43 38
39 38 35 37 25 30 28 26 30 19 24 24 30 26 32 29 28 28 19 29 30 35 31 36 38 36 38 47 43 50 38 38 40 41 52 36 65 54 54 55 48 45 45 40 38
39 37 32 26 23 29 26 28 23 17 27 29 29 28 36 29 30 26 27 25 37 34 30 33 28 38 40 38 35 49 43 41 40 43 43 43 44 62 41 54 44 36 49 49 50
41 36 31 20 20 21 25 24 17 21 21 24 33 35 32 30 25 24 19 14 22 34 36 36 35 30 32 31 30 29 33 37 39 37 50 42 35 61 40 48 44 46 35 43 42
44 33 22 17 22 24 27 23 20 22 23 21 33 32 30 30 23 19 21 18 21 28 35 35 38 37 32 36 35 33 30 35 40 42 48 30 33 33 20 21 26 27 26 30 33
33 26 19 17 20 24 27 23 24 20 20 18 11 6 27 27 23 20 17 15 13 20 23 30 32 30 25 34 32 32 33 34 40 40 43 33 39 33 41 46 40 38 36 33 34
31 23 22 20 21 23 29 26 22 21 17 18 21 19 21 25 24 23 19 16 15 15 21 23 26 21 21 23 25 31 37 34 34 34 35 35 45 55 45 38 42 40 36 33 35
23 20 22 21 22 25 28 25 20 15 14 15 16 19 16 23 26 24 21 20 20 19 20 21 28 24 25 25 29 30 27 35 35 38 38 36 43 42 32 48 42 38 37 36 37
21 19 21 21 23 26 29 24 19 14 16 16 15 13 12 14 24 23 21 21 21 23 23 22 25 27 26 27 29 31 35 34 35 40 40 39 39 35 42 37 28 30 32 34 37
22 21 20 19 25 25 26 22 16 15 15 13 12 13 15 10 15 13 22 22 24 23 24 24 25 33 34 32 33 33 34 34 45 43 49 43 51 31 27 27 30 31 32 32 21
25 17 18 20 26 26 23 21 18 18 14 13 13 13 18 14 16 7 10 24 26 23 22 22 24 31 30 22 23 31 35 38 38 39 52 51 53 29 28 31 30 31 31 26 16
25 23 19 20 22 25 25 22 21 17 13 14 8 12 21 10 5 8 27 26 23 29 26 21 23 27 31 31 32 37 36 34 37 48 55 64 58 52 45 37 35 36 30 24 14
26 22 20 20 21 20 20 19 22 20 17 14 15 11 4 11 8 3 15 32 29 30 25 23 27 25 30 34 37 42 43 46 47 47 49 56 59 47 49 42 38 39 35 25 11
25 24 21 16 15 19 19 20 22 21 18 16 13 5 9 7 4 16 10 27 27 30 24 23 28 27 32 33 36 43 49 48 50 50 50 51 60 46 44 41 38 37 35 26 11
23 21 20 18 17 19 19 20 18 18 15 11 7 7 9 10 6 12 18 23 23 30 29 11 16 23 26 25 31 39 41 44 47 44 47 54 49 43 43 41 37 35 33 20 10
Wind_Direction
323 321 319 316 314 313 311 308 305 304 303 302 300 300 298 294 289 282 267 272 276 273 271 271 273 268 268 264 262 261 258 258 258 261 260 278 281 292 307 308 309 323 323 332 343
327 325 322 319 317 315 314 313 311 308 307 305 302 300 299 298 291 276 276 272 269 270 270 262 259 262 260 260 258 255 256 258 262 259 267 271 276 286 295 296 298 305 314 335 327
333 331 328 325 323 320 317 314 312 311 310 310 309 306 302 299 293 287 292 287 276 268 263 266 261 258 257 257 254 257 257 259 261 263 270 273 275 275 285 283 294 303 296 305 313
333 330 328 327 326 324 323 320 316 314 311 310 309 309 308 302 282 292 291 290 287 278 259 255 256 252 255 253 254 260 260 261 259 266 270 268 278 275 273 281 284 289 298 296 300
331 330 329 328 326 323 320 318 317 316 315 313 312 311 310 294 284 288 284 287 285 282 264 250 248 251 253 256 256 258 260 263 263 267 270 273 273 278 276 279 284 288 291 294 297
328 327 326 324 323 320 318 317 319 319 317 314 313 313 304 289 300 295 291 284 282 276 271 251 254 252 259 254 254 261 262 263 266 267 271 272 273 276 276 281 286 287 289 289 292
325 326 324 323 323 322 321 321 322 322 321 319 318 314 302 293 299 291 288 282 274 269 267 262 253 250 253 259 260 259 262 266 265 267 267 275 267 270 279 283 285 284 285 284 284
331 326 323 322 322 321 321 321 323 330 333 332 326 316 301 305 297 288 288 283 275 266 263 264 259 257 255 260 263 260 261 260 263 265 270 271 253 276 282 284 283 280 282 284 285
334 332 328 326 330 334 338 340 341 347 351 349 333 322 307 308 298 298 301 285 279 262 258 262 256 252 255 252 256 257 256 259 264 266 268 262 255 275 280 281 278 277 277 280 286
336 336 337 338 337 340 341 345 349 353 353 347 342 320 312 299 294 288 285 287 277 259 253 249 251 248 248 243 248 253 257 263 264 269 266 267 263 274 277 278 273 275 276 276 273
344 342 341 342 344 346 354 355 351 351 345 337 329 323 309 305 298 282 283 281 274 254 243 245 243 241 242 246 256 263 259 265 269 269 270 267 266 271 276 274 274 276 278 283 287
343 343 344 345 348 355 3 356 353 348 339 348 347 344 333 317 292 281 283 265 268 252 249 244 244 248 253 252 255 256 260 263 270 272 277 274 270 275 277 277 279 278 278 276 269
345 346 349 352 354 6 358 0 1 1 346 350 358 353 346 337 302 286 266 257 259 257 253 246 255 249 252 252 253 256 258 262 266 274 273 277 271 273 274 280 281 276 274 275 284
350 352 355 352 10 3 4 4 1 14 353 353 354 347 349 345 311 315 277 252 252 252 255 254 252 255 251 251 253 254 260 264 266 267 265 274 268 271 269 271 274 276 273 281 285
351 353 357 3 5 5 7 4 9 24 352 355 357 346 321 345 311 314 287 260 248 250 251 249 257 248 251 255 257 256 259 261 263 265 270 267 273 261 277 269 276 279 252 266 253
346 353 357 15 12 8 6 5 28 13 3 2 348 323 320 330 344 327 300 284 264 249 252 253 259 260 255 257 257 260 259 258 259 263 261 263 266 261 275 268 273 248 278 270 271
335 356 8 24 13 14 10 17 21 16 11 13 342 308 311 321 323 307 327 289 265 250 249 254 255 256 259 255 255 255 255 251 252 252 255 266 258 241 288 291 275 273 277 276 274
308 10 32 31 21 18 19 25 21 21 21 11 4 280 339 319 313 300 293 325 306 268 259 251 250 252 258 249 249 249 245 248 250 254 255 258 260 258 248 248 249 256 268 276 269
9 27 29 31 31 29 21 25 25 23 19 18 13 27 20 320 311 307 291 304 313 298 263 258 254 262 258 261 251 249 246 248 260 262 261 256 260 250 244 247 250 260 272 267 273
24 30 31 33 34 26 26 26 27 27 22 28 27 19 30 351 318 313 295 297 292 307 298 276 260 266 267 267 257 252 253 244 247 249 253 258 256 249 249 231 244 256 272 272 280
31 34 32 32 29 27 25 27 28 38 32 34 37 36 36 35 336 324 305 297 306 296 302 288 269 266 269 260 255 251 248 248 249 247 250 254 253 251 239 242 263 269 280 285 284
30 29 29 32 26 27 24 26 27 36 34 44 43 32 25 41 25 20 312 305 310 309 299 294 277 265 265 267 265 258 250 248 243 243 244 251 242 251 253 259 266 277 286 293 302
25 35 39 37 24 23 25 29 40 31 29 40 29 33 18 22 12 50 18 304 298 310 303 299 281 269 269 272 267 255 252 249 250 249 242 242 233 253 262 264 272 281 288 296 304
28 26 32 36 31 26 23 28 28 28 30 29 26 42 8 17 37 7 282 299 297 287 281 298 283 272 262 269 267 258 254 247 248 243 242 238 240 245 250 263 273 274 283 292 299
28 30 29 20 23 21 25 29 23 26 33 40 41 37 359 22 253 274 353 297 293 279 276 271 278 276 275 277 269 259 254 249 247 245 246 244 243 250 249 257 271 268 271 281 289
27 25 23 15 28 26 30 30 27 25 30 31 25 320 255 240 262 259 259 257 299 273 271 279 278 283 281 277 271 264 257 249 246 245 247 247 244 251 250 255 265 270 270 273 259
25 26 23 25 27 27 29 27 20 23 40 35 12 275 263 255 277 271 251 235 218 233 239 308 312 296 282 290 288 271 255 246 243 243 244 244 247 249 245 250 264 269 270 268 226